Grayling, MI

1:04 PM EDT on July 28, 2017 (GMT -0400)
Grayling

Weather History for KGOV - June, 2013

Change the Weather History Date:

Friday, June 28, 2013

  Actual Average (KHTL) Record (KHTL)
Temperature  
Mean Temperature 66 °F -  
Max Temperature 76 °F 76 °F 96 °F (1934)
Min Temperature 55 °F 52 °F 29 °F (1919)
Growing Degree Days 16 (Base 50)    
Moisture  
Dew Point 61 °F    
Average Humidity 84    
Maximum Humidity 100    
Minimum Humidity 57    
Precipitation  
Precipitation 0.00 in - - ()
Sea Level Pressure  
Sea Level Pressure 29.63 in    
Wind  
Wind Speed 4 mph (North)    
Max Wind Speed 14 mph    
Max Gust Speed 16 mph    
Visibility 8 miles    
Events Fog    
Averages and records for this station are not official NWS values.
T = Trace of Precipitation, MM = Missing Value Source: NWS Daily Summary

Daily Weather History Graph

Daily Weather History Graph

Search for Another Location

Airport or City:

Trip Planner

Search our weather history database for the weather conditions in past years. The results will help you decide how hot, cold, wet, or windy it might be!

Date:

Astronomy

Jun. 28, 2013 Rise Set
Actual Time 5:55 AM EDT 9:28 PM EDT
Civil Twilight 5:18 AM EDT 10:05 PM EDT
Nautical Twilight 4:30 AM EDT 10:54 PM EDT
Astronomical Twilight 3:26 AM EDT 11:57 PM EDT
Moon 12:10 AM EDT 12:18 PM EDT
Length of Visible Light 16h 46m
Length of Day
15h 32m
Waning Gibbous, 66% of the Moon is Illuminated
Jun 28
Waning Gibbous
Jun 30
Last Quarter
Jul 8
New
Jul 15
First Quarter
Jul 22
Full

Hourly Weather History & Observations

Time (EDT) Temp. Dew Point Humidity Pressure Visibility Wind Dir Wind Speed Gust Speed Precip Events Conditions
12:14 AM 63.5 °F 63.5 °F 100% 29.69 in 10.0 mi WNW 3.5 mph - N/A   Clear
12:35 AM 62.6 °F 62.6 °F 100% 29.68 in 5.0 mi West 3.5 mph - N/A   Clear
12:55 AM 62.2 °F 62.2 °F 100% 29.68 in 7.0 mi West 3.5 mph - N/A   Scattered Clouds
1:14 AM 61.9 °F 61.9 °F 100% 29.68 in 5.0 mi NW 4.6 mph - N/A   Scattered Clouds
1:35 AM 63.5 °F 63.5 °F 100% 29.68 in 7.0 mi Calm Calm - N/A   Mostly Cloudy
1:55 AM 63.3 °F 63.3 °F 100% 29.68 in 7.0 mi Calm Calm - N/A   Overcast
2:35 AM 60.6 °F 60.6 °F 100% 29.67 in 0.8 mi Calm Calm - N/A   Mist
2:55 AM 59.7 °F 59.7 °F 100% 29.67 in 0.2 mi Calm Calm - N/A Fog Fog
3:14 AM 58.6 °F 58.6 °F 100% 29.67 in 0.2 mi Calm Calm - N/A Fog Fog
3:35 AM 58.5 °F 58.5 °F 100% 29.66 in 0.2 mi WSW 3.5 mph - N/A Fog Fog
3:55 AM 58.5 °F 58.5 °F 100% 29.67 in 2.5 mi Calm Calm - N/A   Clear
4:15 AM 57.7 °F 57.7 °F 100% 29.66 in 0.2 mi Calm Calm - N/A Fog Fog
4:35 AM 57.6 °F 57.6 °F 100% 29.66 in 0.2 mi Calm Calm - N/A Fog Fog
4:54 AM 56.7 °F 56.7 °F 100% 29.66 in 0.5 mi Calm Calm - N/A Fog Fog
5:15 AM 56.5 °F 56.5 °F 100% 29.65 in 0.5 mi Calm Calm - N/A Fog Fog
5:35 AM 55.9 °F 55.9 °F 100% 29.65 in 3.0 mi Calm Calm - N/A   Clear
5:54 AM 55.9 °F 55.9 °F 100% 29.65 in 2.0 mi Calm Calm - N/A   Clear
6:15 AM 57.7 °F 57.7 °F 100% 29.64 in 5.0 mi Calm Calm - N/A   Clear
6:35 AM 57.7 °F 57.7 °F 100% 29.64 in 10.0 mi Calm Calm - N/A   Scattered Clouds
6:54 AM 58.5 °F 58.5 °F 100% 29.64 in 10.0 mi Calm Calm - N/A   Scattered Clouds
7:15 AM 58.5 °F 58.5 °F 100% 29.64 in 10.0 mi WSW 3.5 mph - N/A   Clear
7:34 AM 59.9 °F 59.9 °F 100% 29.64 in 10.0 mi West 3.5 mph - N/A   Clear
7:55 AM 60.8 °F 60.8 °F 100% 29.63 in 10.0 mi West 3.5 mph - N/A   Clear
8:15 AM 61.3 °F 61.0 °F 99% 29.63 in 10.0 mi Calm Calm - N/A   Clear
8:34 AM 62.1 °F 61.2 °F 97% 29.64 in 10.0 mi Calm Calm - N/A   Clear
8:55 AM 63.1 °F 61.5 °F 94% 29.64 in 10.0 mi WNW 5.8 mph - N/A   Mostly Cloudy
9:15 AM 65.7 °F 63.1 °F 92% 29.63 in 10.0 mi NW 5.8 mph - N/A   Scattered Clouds
9:34 AM 68.5 °F 64.4 °F 87% 29.63 in 10.0 mi NW 5.8 mph - N/A   Mostly Cloudy
9:55 AM 68.5 °F 64.0 °F 85% 29.63 in 10.0 mi North 3.5 mph - N/A   Mostly Cloudy
10:14 AM 68.5 °F 63.5 °F 84% 29.63 in 10.0 mi North 5.8 mph - N/A   Scattered Clouds
10:35 AM 68.5 °F 62.4 °F 81% 29.62 in 10.0 mi North 5.8 mph - N/A   Mostly Cloudy
10:55 AM 70.9 °F 64.0 °F 79% 29.62 in 10.0 mi NE 6.9 mph - N/A   Overcast
11:14 AM 70.3 °F 62.6 °F 76% 29.62 in 10.0 mi NNW 6.9 mph - N/A   Overcast
11:35 AM 71.8 °F 63.0 °F 74% 29.62 in 10.0 mi NNW 5.8 mph - N/A   Overcast
11:55 AM 71.1 °F 62.2 °F 74% 29.61 in 10.0 mi NNE 8.1 mph - N/A   Mostly Cloudy
12:14 PM 73.6 °F 61.2 °F 65% 29.61 in 10.0 mi North 5.8 mph - N/A   Scattered Clouds
12:35 PM 75.0 °F 60.6 °F 61% 29.61 in 10.0 mi North 6.9 mph - N/A   Scattered Clouds
12:55 PM 73.6 °F 59.4 °F 61% 29.61 in 10.0 mi North 6.9 mph - N/A   Mostly Cloudy
1:14 PM 73.6 °F 62.1 °F 67% 29.61 in 10.0 mi NNW 4.6 mph - N/A   Mostly Cloudy
1:35 PM 73.6 °F 60.8 °F 64% 29.61 in 10.0 mi NE 8.1 mph - N/A   Mostly Cloudy
1:55 PM 74.8 °F 61.5 °F 63% 29.60 in 10.0 mi ENE 8.1 mph - N/A   Mostly Cloudy
2:14 PM 76.1 °F 62.1 °F 62% 29.60 in 10.0 mi NNE 10.4 mph - N/A   Scattered Clouds
2:35 PM 76.1 °F 61.2 °F 60% 29.60 in 10.0 mi NE 8.1 mph 16.1 mph N/A   Scattered Clouds
2:54 PM 76.1 °F 61.3 °F 60% 29.60 in 10.0 mi NE 11.5 mph - N/A   Scattered Clouds
3:15 PM 76.1 °F 60.1 °F 57% 29.59 in 10.0 mi North 11.5 mph 16.1 mph N/A   Scattered Clouds
3:35 PM 75.7 °F 62.2 °F 63% 29.59 in 10.0 mi NNE 9.2 mph - N/A   Mostly Cloudy
3:54 PM 73.6 °F 61.2 °F 65% 29.59 in 10.0 mi NE 9.2 mph - N/A   Scattered Clouds
4:15 PM 73.6 °F 60.8 °F 64% 29.59 in 10.0 mi NE 10.4 mph - N/A   Scattered Clouds
4:35 PM 73.6 °F 61.2 °F 65% 29.59 in 10.0 mi NE 11.5 mph - N/A   Mostly Cloudy
4:54 PM 73.6 °F 59.9 °F 62% 29.59 in 10.0 mi North 10.4 mph - N/A   Scattered Clouds
5:15 PM 73.6 °F 62.8 °F 69% 29.59 in 10.0 mi NE 9.2 mph - N/A   Overcast
5:35 PM 73.6 °F 60.8 °F 64% 29.60 in 10.0 mi North 11.5 mph - N/A   Mostly Cloudy
5:54 PM 73.6 °F 61.9 °F 67% 29.60 in 10.0 mi NE 9.2 mph - N/A   Mostly Cloudy
6:15 PM 73.6 °F 61.3 °F 65% 29.61 in 10.0 mi NNE 11.5 mph - N/A   Mostly Cloudy
6:34 PM 73.6 °F 63.5 °F 71% 29.61 in 10.0 mi ENE 13.8 mph - N/A   Mostly Cloudy
6:54 PM 71.1 °F 61.2 °F 71% 29.61 in 10.0 mi NNE 10.4 mph 16.1 mph N/A   Scattered Clouds
7:15 PM 71.1 °F 60.6 °F 69% 29.62 in 10.0 mi NNE 12.7 mph - N/A   Scattered Clouds
7:34 PM 68.7 °F 59.2 °F 72% 29.63 in 10.0 mi NE 10.4 mph - N/A   Scattered Clouds
7:55 PM 68.5 °F 59.9 °F 74% 29.63 in 10.0 mi NE 10.4 mph - N/A   Clear
8:15 PM 68.5 °F 61.9 °F 79% 29.64 in 10.0 mi ENE 6.9 mph - N/A   Scattered Clouds
8:34 PM 68.5 °F 63.0 °F 82% 29.64 in 10.0 mi East 6.9 mph - N/A   Mostly Cloudy
8:55 PM 68.5 °F 63.5 °F 84% 29.64 in 10.0 mi ENE 6.9 mph - N/A   Overcast
9:14 PM 68.5 °F 64.0 °F 85% 29.64 in 10.0 mi ENE 8.1 mph - N/A   Overcast
9:34 PM 67.3 °F 63.7 °F 88% 29.64 in 10.0 mi ENE 6.9 mph - N/A   Overcast
9:55 PM 65.7 °F 63.1 °F 92% 29.64 in 2.5 mi ENE 3.5 mph - N/A   Scattered Clouds
10:14 PM 63.5 °F 62.1 °F 95% 29.65 in 7.0 mi NE 3.5 mph - N/A   Clear
10:35 PM 62.6 °F 61.3 °F 96% 29.65 in 10.0 mi NNE 3.5 mph - N/A   Clear
10:54 PM 62.4 °F 61.7 °F 97% 29.65 in 10.0 mi North 3.5 mph - N/A   Mostly Cloudy
11:15 PM 61.9 °F 61.2 °F 97% 29.65 in 10.0 mi Calm Calm - N/A   Overcast
11:35 PM 62.2 °F 61.7 °F 98% 29.64 in 10.0 mi NNW 3.5 mph - N/A   Overcast
11:54 PM 61.2 °F 60.8 °F 99% 29.64 in 10.0 mi NNW 3.5 mph - N/A   Mostly Cloudy